www.pogodaiklimat.ru

Погода и климат >> Архив погоды >> Иран >> Омидийе


ПОГОДА в Омидийе

  • Прогноз погоды в Омидийе
  • Монитор погоды в Омидийе

АРХИВ ПОГОДЫ в Омидийе

Время (UTC), дата Ветер
(напр.,м/с)
 
Видим.   Явления Облачность Т
(С)
Тd
(С)
f
(%)
Тe
(С)
Тes
(С)
Комфортность P
(гПа)
Po
(гПа)
Тmin
(С)
Tmax
(С)
R
(мм)
R24
(мм)
S
(см)
18 17.06 С 4 10 км ясно +35.2 +3.2 14 +32 +32 жарко 1001.0 998.1
21 17.06 С 5 10 км ясно +32.4 +4.7 18 +30 +30 жарко 1001.6 998.7
00 18.06 С 6 10 км ясно +29.6 +5.4 22 +28 +28 жарко 1001.7 998.7
03 18.06 С 5 8000 м мгла ясно +30.1 +6.3 22 +29 +29 жарко 1002.6 999.6 +28.0
06 18.06 С 10 10 км ясно +42.4 +3.4 9 +39 +40 очень
жарко
1003.1 1000.2
09 18.06 С 10 10 км ясно +44.6 -0.2 6 +41 +42 опасность
перегрева
1002.2 999.3 666
12 18.06 СЗ 14 6000 м пыльный позёмок ясно +45.6 +0.1 6 +42 +42 опасность
перегрева
999.9 996.9
15 18.06 СЗ 10 10 км ясно +44.0 -0.6 6 +40 +40 очень
жарко
999.2 996.3 +46.0
18 18.06 С 5 10 км ясно +36.4 +5.1 14 +34 +34 очень
жарко
1000.1 997.2
21 18.06 С 5 10 км ясно +31.5 +6.5 21 +30 +30 жарко 1001.0 998.0
00 19.06 С 4 10 км ясно +27.8 +5.9 25 +27 +27 жарко 999.8 996.8
03 19.06 СЗ 3 10 км ясно +28.6 +5.8 24 +27 +29 жарко 999.8 996.8 +26.6
06 19.06 С 12 10 км ясно +39.0 +5.8 13 +36 +36 очень
жарко
999.3 996.3
12 19.06 СЗ 14 8000 м пыльный позёмок ясно +44.5 +3.3 8 +41 +41 опасность
перегрева
997.9 994.9
15 19.06 СЗ 11 10 км ясно +41.3 +3.6 10 +38 +38 очень
жарко
998.2 995.2 +45.5
18 19.06 С 9 10 км ясно +35.3 +7.0 17 +33 +33 жарко 999.5 996.5
21 19.06 СЗ 3 10 км ясно +30.0 +8.1 25 +29 +29 жарко 1000.1 997.1
00 20.06 СЗ 2 10 км ясно +26.2 +9.5 35 +27 +27 жарко 999.4 996.4
03 20.06 ЮЗ 1 10 км ясно +27.9 +11.6 36 +29 +31 жарко 999.9 996.9 +25.7 666
06 20.06 С 2 8000 м мгла ясно +36.3 +11.7 23 +36 +50 очень
жарко
1000.4 997.4
09 20.06 СЗ 4 10 км ясно +40.4 +10.3 17 +39 +54 опасность
солнечного
удара
1000.2 997.2 666
12 20.06 С 8 10 км ясно +43.8 +6.3 11 +41 +43 опасность
перегрева
998.4 995.4
15 20.06 З 14 10 км ясно +42.0 +7.7 13 +40 +40 очень
жарко
997.8 994.8 +44.1
18 20.06 С 5 10 км ясно +34.9 +11.2 24 +34 +34 очень
жарко
999.3 996.3
21 20.06 СЗ 6 10 км ясно +31.1 +10.0 27 +31 +31 жарко 1000.3 997.3
00 21.06 С 5 10 км ясно +28.4 +10.2 32 +29 +29 жарко 1000.1 997.1
03 21.06 С 5 8000 м мгла ясно +28.5 +11.4 35 +29 +30 жарко 1000.8 997.8 +25.9 666
06 21.06 С 4 8000 м мгла ясно +37.0 +11.8 22 +36 +46 очень
жарко
1000.9 998.0
09 21.06 СЗ 3 10 км ясно +42.7 +9.1 14 +41 +59 опасность
перегрева
1000.0 997.1 666
12 21.06 З 8 10 км ясно +43.9 +8.4 12 +42 +44 опасность
перегрева
998.5 995.6
15 21.06 З 10 10 км ясно +41.8 +8.2 13 +40 +40 очень
жарко
998.6 995.6 +43.9
18 21.06 С 5 8000 м мгла ясно +35.5 +8.7 19 +34 +34 очень
жарко
999.8 996.9
21 21.06 С 4 10 км ясно +28.5 +6.6 25 +28 +28 жарко 999.9 996.9
00 22.06 С 3 10 км ясно +28.4 +7.8 27 +28 +28 жарко 999.0 996.1
03 22.06 С 2 8000 м мгла ясно +27.8 +9.4 32 +28 +30 жарко 1000.4 997.4 +25.3
06 22.06 штиль 0 10 км ясно +36.3 +10.4 21 +35 +55 опасность
солнечного
удара
1001.8 998.9
09 22.06 СЗ 5 10 км ясно +44.1 +7.3 11 +42 +53 опасность
перегрева
1001.5 998.6
12 22.06 ЮЗ 4 10 км ясно +45.8 +4.6 8 +43 +50 опасность
перегрева
1000.8 997.9
15 22.06 З 7 10 км ясно +42.6 +2.1 8 +39 +39 очень
жарко
1000.9 997.9 +46.0
18 22.06 штиль 0 10 км ясно +36.7 +3.8 13 +34 +34 очень
жарко
1001.1 998.2
21 22.06 штиль 0 10 км ясно +32.5 +8.1 22 +31 +31 жарко 1001.6 998.6
00 23.06 Ю 4 10 км ясно +30.8 +5.9 21 +29 +29 жарко 1001.4 998.4
03 23.06 ЮВ 2 7000 м мгла ясно +29.3 +8.3 27 +29 +30 жарко 1002.8 999.8 +26.6 666
06 23.06 Ю 4 10 км ясно +41.0 +8.3 14 +39 +49 очень
жарко
1003.2 1000.2
09 23.06 Ю 4 10 км ясно +45.5 +7.6 11 +43 +58 опасность
перегрева
1002.8 999.8
12 23.06 З 1 10 км ясно +46.2 +11.5 13 +45 +58 опасность
перегрева
1001.8 998.8
15 23.06 СЗ 5 10 км ясно +45.1 +8.1 11 +43 +43 опасность
перегрева
1001.1 998.1 +46.2
18 23.06 Ю 4 10 км ясно +36.5 +12.5 24 +36 +36 очень
жарко
1002.2 999.2
21 23.06 Ю 2 10 км ясно +33.6 +12.3 27 +34 +34 очень
жарко
1002.1 999.2
00 24.06 ЮЗ 1 10 км ясно +29.7 +13.4 37 +31 +31 жарко 1002.0 999.0
03 24.06 ЮВ 1 8000 м мгла ясно +31.8 +10.2 26 +31 +33 жарко 1002.4 999.4 +27.9 666
06 24.06 Ю 4 7000 м мгла ясно +40.4 +12.3 19 +40 +50 очень
жарко
1003.1 1000.2
09 24.06 СЗ 4 8000 м мгла ясно +46.0 +10.6 13 +45 +60 опасность
перегрева
1002.5 999.6
12 24.06 С 7 10 км ясно +48.9 +9.3 10 +47 +50 опасность
перегрева
1000.8 997.9
15 24.06 СЗ 9 10 км ясно +46.8 +8.6 11 +45 +45 опасность
перегрева
1000.3 997.4 +49.3

 

Местоположение метеостанции Омидийе (Иран): широта 30.77 долгота 49.67 высота над уровнем моря 27 м.

В архиве по умолчанию представлена погода в Омидийе за последнюю неделю. Архивные данные за месяц целиком и за предыдущие месяцы, начиная с января 2011 года, Вы можете получить, выбрав интересующий диапазон дат из раскрывающегося списка и нажав кнопку "Ввод!".


*Определитесь, кто Вы:
робот инопланетянин человек

Внимание! Время в таблицах - всемирное. Для получения местного времени необходимо прибавить поправку, которая равна 3.5 ч.

Смотрите также архив погоды в соседних городах и на ближайших метеорологических станциях:

Погода в Гечсаране (Иран) (112 км)
Погода в Ахвазе (Иран) (114 км)
Погода в Месджеде-Солеймане (Иран) (140 км)
Погода в Эль-Фао (Ирак) (143 км)
Погода в Абадане (Иран) (143 км)
Погода на Бубияне (Кувейт) (167 км)
Погода на Харке (Иран) (179 км)
Погода в Басре (Ирак) (182 км)
Погода в Ясудже (Иран) (183 км)
Погода в Басре аэропорт (Ирак) (183 км)

Пояснения к столбцам:

Ветер - указаны скорость ветра в м/с - средняя за 10 мин, порывы в срок и между сроками (в фигурных скобках) и направление, откуда дует ветер: С - северный, СВ - северо-восточный, В - восточный, ЮВ - юго-восточный, Ю - южный, ЮЗ - юго-западный, З - западный, СЗ - северо-западный.
Видимость - горизонтальная дальность видимости в метрах или километрах. При видимости от 1 до 10 км при отсутствии осадков обычно наблюдается дымка, при ухудшении видимости до 1 км и менее - туман. В сухую погоду видимость может ухудшаться дымом, пылью или мглою.
Явления - указаны атмосферные явления, наблюдавшиеся в срок или в последний час перед сроком; фигурными скобками обозначены явления, наблюдавшиеся между сроками (за 1-3 часа до срока); квадратными скобками обозначены град или гололедные отложения с указанием их диаметра в мм.
Облачность - указаны через наклонную черту общая и нижняя облачность в баллах и высота нижней границы облаков в метрах; квадратными скобками обозначены формы облаков: Ci - перистые, Cs - перисто-слоистые, Cc - перисто-кучевые, Ac - высококучевые, As - высокослоистые, Sc - слоисто-кучевые, Ns - слоисто-дождевые, Cu - кучевые, Cb - кучево-дождевые. Подробнее классификацию облаков см. в Атласе облаков (PDF).
T - Температура воздуха - температура, измеренная на высоте 2 м над землей.
Td - Температура точки росы - температура, при понижении до которой содержащийся в воздухе водяной пар достигнет насыщения.
f - Относительная влажность воздуха - влажноcть воздуха, измеренная на высоте 2 м над землей.
Te - Эффективная температура - температура, которую ощущает одетый по сезону человек в тени. Характеристика душности погоды. При расчете учитывается влияние влажности воздуха и скорости ветра на теплоощущения человека.
Tes - Эффективная температура на солнце - температура, которую ощущает человек, с поправкой на солнечный нагрев. Характеристика знойности погоды. Зависит от высоты солнца над горизонтом, облачности и скорости ветра. Ночью, в пасмурную погоду, а также при ветре 12 м/с и более поправка равна нулю.
P - Атмосферное давление - приведенное к уровню моря атмосферное давление.
Po - Атмосферное давление - измеренное на уровне метеостанции атмосферное давление.
Tmin - Минимальная температура - минимум температуры воздуха на высоте 2 м над землей.
Tmax - Максимальная температура - максимум температуры воздуха на высоте 2 м над землей.
R - Количество осадков - Количество выпавших осадков за период времени, мм. При наведении курсора мыши на число - период времени, за который выпало указанное количество осадков.
R24 - Количество осадков - Количество выпавших осадков за 24 часа, мм.
S - Снежный покров - Высота снежного покрова, см. При наведении курсора мыши на число - состояние снежного покрова и степень покрытия местности в баллах.